GPS BIII-5 (PRN 11)

Last updated on Sat Nov 15 2025 00:03:18 GMT+0000 (Coordinated Universal Time)

1 48859U 21054A 25318.37755933 -.00000086 00000+0 00000+0 0 9990 2 48859 55.2660 341.0928 0024495 231.9355 310.9286 2.00555100 32449
UTC large
Height (km)
Speed (km/s)
/
Latitude / Longitude
Inclination (degrees)
Orbital Period (minutes)
Azimuth
Elevation
Range (km)
Doppler Factor

Next 0 passes for location: London (51.5072 / 0.1276)

Sorry there are no passes over London.